Location: Pinhead Observatory
(34.4473°N, 118.1985°W)
Time: 17:09:15
(UTC-07:00)

CZ-4C R/B - Visible Passes

Search period start: 28 May 2017 00:00
Search period end: 07 June 2017 00:00
Orbit: 717 x 1285 km, 63.4° (Epoch: 27 May)

Date Brightness Start Highest point End Pass type
(mag) Time Alt. Az. Time Alt. Az. Time Alt. Az.
31 May 4.5 04:44:01 10° SE 04:46:49 15° ESE 04:49:44 10° ENE visible
02 Jun 4.7 04:04:21 10° ESE 04:05:36 11° ESE 04:06:51 10° E visible
03 Jun 3.5 04:33:58 10° S 04:38:27 32° ESE 04:43:20 10° NE visible
04 Jun 2.1 05:06:33 10° SSW 05:11:39 89° ESE 05:17:23 10° NNE visible
05 Jun 3.8 03:53:12 10° SSE 03:57:10 25° ESE 04:01:35 10° ENE visible
06 Jun 2.3 04:26:03 15° SSW 04:30:16 69° ESE 04:35:55 10° NE visible
